Location: Izdebno
(52.6670°N, 16.2170°E)
Time: 04:36:02
(UTC+02:00)

Transit 4A - Pass Details

Date: 29 February 2024
Orbit: 871 x 972 km, 66.8° (Epoch: 22 April)

Event Time Altitude Azimuth Distance (km) Brightness Sun altitude
Rises 10:55:51 0° 308° (NW) 3,488 10.4 27.7°
Reaches altitude 10° 11:01:00 10° 269° (W) 2,527 10.1 28.0°
Maximum altitude 11:01:52 10° 260° (W) 2,500 10.2 28.0°
Drops below altitude 10° 11:02:45 10° 252° (WSW) 2,522 10.3 28.1°
Sets 11:07:52 0° 213° (SSW) 3,450 11.4 28.3°
